Location: Dąbrówka
(52.2799°N, 15.8070°E)
Time: 13:28:29
(UTC+01:00)

ISS - Pass Details

Date: 24 January 2019
Orbit: 403 x 411 km, 51.6° (Epoch: 23 February)

Event Time Altitude Azimuth Distance (km) Brightness Sun altitude
Rises 19:16:42 0° 234° (SW) 2,331 0.8 -25.3°
Reaches altitude 10° 19:18:50 10° 227° (SW) 1,475 -0.4 -25.7°
Enters shadow 19:19:45 17° 220° (SW) 1,136 -1.2 -25.8°
